M I D A S
Marine Information and Data Acquisition System
Tripno 2124 of the Zeeleeuw from 2011-06-20 06:51:14 to 2011-06-20 15:03:38
Back to CruiseResearch ActivitiesStationsMapUnderway DataData graphs

EquipmentUnitsComments
TimeDGPSUTC
LatitudeDGPSDM.mWGS84
LongitudeDGPSDM.mWGS84
SpeedMeteo Stationm/sRelative wind speed
DirectionMeteo StationdegRelative wind direction
TemperatureMeteo Stationdeg CelciusAir temperature
PressureMeteo StationPaAtmospheric pressure
HumidityMeteo Station%Relative humidity
Missing or incorrect values are displayed as -999
Metereological data collected by the RV Zeeleeuw from 2011-06-20 06:51:25 to 2011-06-20 15:51:21
Time Latitude Longitude Speed Direction Temperature Pressure Humidity
2011-06-20 06:52 51°13.66 2°55.926 -999 34 12.1 101230 41
2011-06-20 06:53 51°13.687 2°55.814 -999 15 12.1 101230 42
2011-06-20 06:54 51°13.696 2°55.737 -999 9 12.1 101230 42
2011-06-20 06:55 51°13.71 2°55.741 -999 41 12.1 101230 42
2011-06-20 06:56 51°13.703 2°55.739 0.2 80 12.1 101230 42
2011-06-20 06:57 51°13.778 2°55.676 0.1 285 12.2 101230 42
2011-06-20 06:58 51°13.929 2°55.56 -999 282 12.2 101230 44
2011-06-20 06:59 51°14.097 2°55.434 -999 282 12.2 101230 42
2011-06-20 07:00 51°14.263 2°55.296 -999 282 12.1 101230 41
2011-06-20 07:01 51°14.424 2°55.144 2.2 280 12.2 101230 43
2011-06-20 07:02 51°14.592 2°54.957 2.3 284 12.2 101230 43
2011-06-20 07:03 51°14.766 2°54.752 2 284 12.2 101230 42
2011-06-20 07:04 51°14.947 2°54.552 -999 282 12.2 101230 44
2011-06-20 07:05 51°15.131 2°54.361 2 287 12.2 101230 42
2011-06-20 07:06 51°15.342 2°54.301 1.9 279 12.1 101240 42
2011-06-20 07:07 51°15.554 2°54.304 2.7 278 12.2 101240 43
2011-06-20 07:08 51°15.769 2°54.296 3.1 280 12.2 101230 40
2011-06-20 07:09 51°15.98 2°54.267 1.9 284 12.2 101240 41
2011-06-20 07:10 51°16.115 2°54.289 -999 19 12.2 101230 42
2011-06-20 07:11 51°16.198 2°54.31 -999 27 12.2 101230 43
2011-06-20 07:12 51°16.249 2°54.304 -999 78 12.3 101220 43
2011-06-20 07:13 51°16.254 2°54.289 -999 78 12.2 101230 43
2011-06-20 07:14 51°16.251 2°54.28 -999 78 12.5 101230 43
2011-06-20 07:15 51°16.248 2°54.266 -999 78 12.6 101230 43
2011-06-20 07:16 51°16.248 2°54.254 -999 78 12.5 101230 41
2011-06-20 07:17 51°16.25 2°54.238 -999 44 12.5 101230 43
2011-06-20 07:18 51°16.251 2°54.223 -999 42 12.4 101220 43
2011-06-20 07:19 51°16.254 2°54.209 2.8 34 12.4 101230 43
2011-06-20 07:20 51°16.257 2°54.197 2.8 26 12.4 101230 44
2011-06-20 07:21 51°16.259 2°54.182 2.9 22 12.5 101230 44
2011-06-20 07:22 51°16.263 2°54.171 -999 16 12.4 101230 43
2011-06-20 07:23 51°16.318 2°54.176 -999 78 12.4 101230 43
2011-06-20 07:24 51°16.42 2°54.043 -999 283 12.3 101230 41
2011-06-20 07:25 51°16.56 2°53.865 -999 282 12.4 101240 43
2011-06-20 07:26 51°16.709 2°53.629 -999 282 12.3 101240 43
2011-06-20 07:27 51°16.856 2°53.367 -999 282 12.3 101230 43
2011-06-20 07:28 51°16.992 2°53.108 -999 283 12.3 101230 43
2011-06-20 07:29 51°17.11 2°52.813 0.3 282 12.4 101230 44
2011-06-20 07:30 51°17.254 2°52.549 -999 282 12.4 101230 43
2011-06-20 07:31 51°17.408 2°52.302 -999 282 12.3 101230 43
2011-06-20 07:32 51°17.581 2°52.089 1.8 286 12.4 101230 40
2011-06-20 07:33 51°17.745 2°51.861 -999 282 12.4 101220 43
2011-06-20 07:34 51°17.916 2°51.643 -999 282 12.4 101230 43
2011-06-20 07:35 51°18.082 2°51.409 0.9 279 12.4 101230 43
2011-06-20 07:36 51°18.252 2°51.196 1.3 284 12.4 101230 45
2011-06-20 07:37 51°18.401 2°51.017 -999 282 12.5 101230 43
2011-06-20 07:38 51°18.505 2°50.957 2 19 12.5 101220 42
2011-06-20 07:39 51°18.534 2°50.968 2.7 23 12.6 101220 44
2011-06-20 07:40 51°18.538 2°50.951 3 23 12.5 101220 43
2011-06-20 07:41 51°18.542 2°50.933 3.7 23 12.4 101220 44
2011-06-20 07:42 51°18.546 2°50.916 3.6 26 12.4 101220 42
2011-06-20 07:43 51°18.55 2°50.898 3.1 27 12.4 101220 43
2011-06-20 07:44 51°18.554 2°50.88 2.8 27 12.4 101220 44
2011-06-20 07:45 51°18.577 2°50.944 5.2 355 12.4 101220 44
2011-06-20 07:46 51°18.64 2°51.193 6.3 348 12.4 101210 43
2011-06-20 07:47 51°18.71 2°51.493 7.7 278 12.4 101210 43
2011-06-20 07:48 51°18.765 2°51.796 7.8 284 12.4 101220 43
2011-06-20 07:49 51°18.821 2°52.109 7.6 351 12.4 101210 43
2011-06-20 07:50 51°18.879 2°52.408 7.8 279 12.4 101210 43
2011-06-20 07:51 51°18.934 2°52.714 9.1 351 12.3 101210 42
2011-06-20 07:52 51°18.984 2°53.02 7 351 12.3 101210 43
2011-06-20 07:53 51°19.046 2°53.32 7.4 278 12.4 101220 42
2011-06-20 07:54 51°19.104 2°53.624 7.9 347 12.4 101220 43
2011-06-20 07:55 51°19.159 2°53.932 8.8 347 12.4 101220 42
2011-06-20 07:56 51°19.216 2°54.233 8 282 12.4 101220 43
2011-06-20 07:57 51°19.262 2°54.533 8.6 280 12.4 101220 42
2011-06-20 07:58 51°19.32 2°54.832 9.1 284 12.4 101220 43
2011-06-20 07:59 51°19.378 2°55.136 9.4 347 12.4 101220 43
2011-06-20 08:00 51°19.425 2°55.442 9 281 12.3 101220 43
2011-06-20 08:01 51°19.484 2°55.734 7.7 352 12.3 101220 43
2011-06-20 08:02 51°19.547 2°56.035 7.6 349 12.2 101210 43
2011-06-20 08:03 51°19.603 2°56.328 7.5 281 12.2 101220 42
2011-06-20 08:04 51°19.674 2°56.619 7.9 280 12.2 101210 43
2011-06-20 08:05 51°19.727 2°56.92 7 348 12.2 101220 43
2011-06-20 08:06 51°19.796 2°57.22 8.9 349 12.3 101210 42
2011-06-20 08:07 51°19.852 2°57.515 7.2 278 12.3 101220 43
2011-06-20 08:08 51°19.925 2°57.812 7.1 280 12.3 101220 42
2011-06-20 08:09 51°19.979 2°58.107 7.4 351 12.3 101210 42
2011-06-20 08:10 51°20.049 2°58.404 7.5 349 12.3 101220 43
2011-06-20 08:11 51°20.106 2°58.703 8.1 348 12.3 101230 43
2011-06-20 08:12 51°20.17 2°58.996 6.6 348 12.3 101220 42
2011-06-20 08:13 51°20.225 2°59.292 7.5 282 12.3 101230 43
2011-06-20 08:14 51°20.297 2°59.577 8.3 283 12.3 101220 43
2011-06-20 08:15 51°20.351 2°59.871 7.3 279 12.3 101230 43
2011-06-20 08:16 51°20.404 3°0.164 9 281 12.3 101230 42
2011-06-20 08:17 51°20.466 3°0.443 5.8 283 12.3 101230 43
2011-06-20 08:18 51°20.528 3°0.73 7.6 284 12.4 101230 43
2011-06-20 08:19 51°20.579 3°1.019 8.5 281 12.4 101230 43
2011-06-20 08:20 51°20.642 3°1.3 6.9 286 12.4 101240 43
2011-06-20 08:21 51°20.705 3°1.587 6.9 285 12.4 101230 42
2011-06-20 08:22 51°20.771 3°1.869 7.8 279 12.4 101230 43
2011-06-20 08:23 51°20.822 3°2.151 6.9 283 12.4 101230 42
2011-06-20 08:24 51°20.889 3°2.436 6.5 279 12.4 101230 43
2011-06-20 08:25 51°20.95 3°2.712 8.5 280 12.4 101230 42
2011-06-20 08:26 51°21.007 3°2.997 8 282 12.4 101230 43
2011-06-20 08:27 51°21.061 3°3.274 6.5 346 12.4 101230 43
2011-06-20 08:28 51°21.136 3°3.547 6.4 283 12.4 101230 43
2011-06-20 08:29 51°21.21 3°3.812 7.7 279 12.3 101230 43
2011-06-20 08:30 51°21.288 3°4.083 6.4 279 12.3 101230 42
2011-06-20 08:31 51°21.354 3°4.347 7 283 12.4 101230 42
2011-06-20 08:32 51°21.433 3°4.611 6.8 279 12.4 101230 43
2011-06-20 08:33 51°21.5 3°4.868 6 284 12.4 101230 43
2011-06-20 08:34 51°21.568 3°5.129 5.7 282 12.5 101230 43
2011-06-20 08:35 51°21.629 3°5.399 6.9 282 12.5 101230 43
2011-06-20 08:36 51°21.684 3°5.661 6.7 280 12.6 101230 42
2011-06-20 08:37 51°21.747 3°5.923 7.7 278 12.6 101230 43
2011-06-20 08:38 51°21.802 3°6.194 7.9 280 12.6 101240 43
2011-06-20 08:39 51°21.866 3°6.455 6.9 284 12.5 101230 42
2011-06-20 08:40 51°21.917 3°6.72 7.5 286 12.5 101240 42
2011-06-20 08:41 51°21.973 3°6.993 7.1 281 12.5 101240 44
2011-06-20 08:42 51°21.969 3°7.271 7.3 281 12.6 101230 43
2011-06-20 08:43 51°21.983 3°7.553 6.3 280 12.6 101230 43
2011-06-20 08:44 51°21.995 3°7.839 5.9 285 12.5 101230 42
2011-06-20 08:45 51°22.02 3°8.115 7.3 279 12.5 101240 43
2011-06-20 08:46 51°22.047 3°8.391 6.2 284 12.5 101230 43
2011-06-20 08:47 51°22.077 3°8.665 6.1 282 12.6 101230 43
2011-06-20 08:48 51°22.12 3°8.935 7.3 281 12.6 101230 43
2011-06-20 08:49 51°22.162 3°9.204 6.3 285 12.6 101230 42
2011-06-20 08:50 51°22.206 3°9.473 6.1 280 12.6 101230 42
2011-06-20 08:51 51°22.251 3°9.743 7 284 12.6 101240 43
2011-06-20 08:52 51°22.272 3°10.019 7.3 279 12.6 101230 42
2011-06-20 08:53 51°22.305 3°10.293 6 283 12.7 101230 43
2011-06-20 08:54 51°22.325 3°10.507 5.5 280 12.6 101230 42
2011-06-20 08:55 51°22.353 3°10.672 5.1 346 12.6 101230 42
2011-06-20 08:56 51°22.372 3°10.8 5 349 12.6 101240 42
2011-06-20 08:57 51°22.386 3°10.923 2.5 278 12.6 101240 42
2011-06-20 08:58 51°22.402 3°11.045 4.8 279 12.6 101240 43
2011-06-20 08:59 51°22.431 3°11.204 4.8 286 12.6 101230 43
2011-06-20 09:00 51°22.46 3°11.375 5.3 279 12.6 101230 41
2011-06-20 09:01 51°22.483 3°11.544 5.4 280 12.6 101230 43
2011-06-20 09:02 51°22.476 3°11.603 1.8 287 12.6 101240 42
2011-06-20 09:03 51°22.467 3°11.563 -999 282 12.6 101240 43
2011-06-20 09:04 51°22.464 3°11.512 -999 282 12.6 101240 43
2011-06-20 09:05 51°22.459 3°11.459 -999 282 12.6 101240 43
2011-06-20 09:06 51°22.455 3°11.406 -999 282 12.7 101240 43
2011-06-20 09:07 51°22.452 3°11.353 -999 282 12.7 101240 43
2011-06-20 09:08 51°22.449 3°11.3 -999 282 12.7 101230 41
2011-06-20 09:09 51°22.443 3°11.251 0.1 282 12.7 101230 43
2011-06-20 09:10 51°22.434 3°11.253 -999 282 12.7 101240 43
2011-06-20 09:11 51°22.453 3°11.389 4.3 280 12.7 101230 42
2011-06-20 09:12 51°22.473 3°11.624 7.1 281 12.7 101220 44
2011-06-20 09:13 51°22.485 3°11.883 7.2 285 12.7 101230 42
2011-06-20 09:14 51°22.5 3°12.146 6.7 285 12.6 101230 43
2011-06-20 09:15 51°22.53 3°12.407 7.8 284 12.7 101230 42
2011-06-20 09:16 51°22.547 3°12.671 6.6 282 12.7 101220 41
2011-06-20 09:17 51°22.585 3°12.93 7 284 12.6 101230 43
2011-06-20 09:18 51°22.63 3°13.179 5.3 283 12.6 101220 43
2011-06-20 09:19 51°22.62 3°13.276 0.1 282 12.7 101230 42
2011-06-20 09:20 51°22.599 3°13.258 -999 282 12.7 101230 43
2011-06-20 09:21 51°22.598 3°13.211 -999 282 12.7 101230 43
2011-06-20 09:22 51°22.598 3°13.164 -999 282 12.8 101230 43
2011-06-20 09:23 51°22.598 3°13.117 -999 282 12.8 101230 43
2011-06-20 09:24 51°22.597 3°13.07 -999 282 12.8 101230 41
2011-06-20 09:25 51°22.597 3°13.025 -999 282 12.8 101230 43
2011-06-20 09:26 51°22.598 3°12.979 -999 282 12.8 101220 43
2011-06-20 09:27 51°22.589 3°12.945 -999 282 12.8 101220 43
2011-06-20 09:28 51°22.585 3°12.953 -999 352 12.8 101230 43
2011-06-20 09:29 51°22.65 3°12.979 -999 348 12.7 101220 43
2011-06-20 09:30 51°22.814 3°13.045 5.2 280 12.7 101210 43
2011-06-20 09:31 51°23.021 3°13.041 4.1 279 12.8 101220 42
2011-06-20 09:32 51°23.226 3°13.014 4.6 281 12.8 101220 42
2011-06-20 09:33 51°23.424 3°12.93 4 284 12.8 101220 43
2011-06-20 09:34 51°23.63 3°12.876 4.7 286 12.8 101230 42
2011-06-20 09:35 51°23.828 3°12.804 5.1 283 12.8 101220 44
2011-06-20 09:36 51°24.032 3°12.737 4.8 280 12.8 101230 43
2011-06-20 09:37 51°24.239 3°12.657 4.8 286 12.9 101230 44
2011-06-20 09:38 51°24.447 3°12.585 4.1 280 12.9 101230 43
2011-06-20 09:39 51°24.65 3°12.478 3.4 280 12.9 101230 42
2011-06-20 09:40 51°24.824 3°12.254 2.5 279 12.9 101230 41
2011-06-20 09:41 51°24.948 3°11.946 3.9 280 12.8 101230 44
2011-06-20 09:42 51°25.045 3°11.616 3.9 281 12.9 101230 44
2011-06-20 09:43 51°25.094 3°11.255 6.2 282 12.9 101220 44
2011-06-20 09:44 51°25.059 3°10.894 5.6 278 12.9 101220 43
2011-06-20 09:45 51°24.987 3°10.541 5.4 286 12.9 101210 44
2011-06-20 09:46 51°24.907 3°10.2 6.6 280 12.9 101210 43
2011-06-20 09:47 51°24.81 3°9.848 5.7 278 13 101210 44
2011-06-20 09:48 51°24.776 3°9.489 4.9 284 13 101220 43
2011-06-20 09:49 51°24.741 3°9.126 4.6 280 13 101210 43
2011-06-20 09:50 51°24.698 3°8.763 5.3 284 13 101220 44
2011-06-20 09:51 51°24.636 3°8.415 5.6 279 13 101210 42
2011-06-20 09:52 51°24.623 3°8.045 4.8 283 13.1 101200 44
2011-06-20 09:53 51°24.621 3°7.701 3.5 285 13 101210 42
2011-06-20 09:54 51°24.696 3°7.371 2.6 278 13.1 101210 44
2011-06-20 09:55 51°24.849 3°7.171 2.3 283 13.1 101220 43
2011-06-20 09:56 51°25.047 3°7.095 0.1 351 13.1 101210 44
2011-06-20 09:57 51°25.236 3°7.067 -999 282 13.1 101210 43
2011-06-20 09:58 51°25.436 3°7.045 -999 350 13 101210 43
2011-06-20 09:59 51°25.622 3°7.115 -999 350 13 101210 43
2011-06-20 10:00 51°25.773 3°7.279 -999 282 13 101200 43
2011-06-20 10:01 51°25.905 3°7.511 -999 352 12.9 101200 43
2011-06-20 10:02 51°26.045 3°7.693 -999 351 13 101210 43
2011-06-20 10:03 51°26.184 3°7.913 -999 350 13 101200 43
2011-06-20 10:04 51°26.323 3°8.101 -999 350 13 101210 43
2011-06-20 10:05 51°26.433 3°8.256 -999 359 13 101210 43
2011-06-20 10:06 51°26.446 3°8.317 -999 354 13 101210 43
2011-06-20 10:07 51°26.43 3°8.305 -999 351 13.1 101210 43
2011-06-20 10:08 51°26.413 3°8.289 -999 282 13 101210 43
2011-06-20 10:09 51°26.398 3°8.273 -999 282 13.1 101210 43
2011-06-20 10:10 51°26.383 3°8.255 -999 282 13.1 101210 43
2011-06-20 10:11 51°26.37 3°8.236 -999 351 13 101210 43
2011-06-20 10:12 51°26.355 3°8.221 -999 357 13.1 101200 43
2011-06-20 10:13 51°26.36 3°8.251 -999 18 13.1 101190 43
2011-06-20 10:14 51°26.402 3°8.208 -999 282 13.2 101210 43
2011-06-20 10:15 51°26.388 3°8.06 -999 282 13.3 101210 43
2011-06-20 10:16 51°26.346 3°7.761 -999 282 13.3 101190 43
2011-06-20 10:17 51°26.349 3°7.394 -999 282 13.3 101200 43
2011-06-20 10:18 51°26.414 3°7.065 -999 282 13.3 101200 43
2011-06-20 10:19 51°26.56 3°6.799 -999 282 13.3 101210 43
2011-06-20 10:20 51°26.697 3°6.554 0.1 282 13.4 101210 43
2011-06-20 10:21 51°26.837 3°6.274 -999 282 13.5 101210 43
2011-06-20 10:22 51°26.967 3°6.01 3 284 13.5 101210 43
2011-06-20 10:23 51°27.107 3°5.746 2.9 279 13.5 101210 43
2011-06-20 10:24 51°27.254 3°5.476 3.6 280 13.5 101200 44
2011-06-20 10:25 51°27.38 3°5.205 2.8 286 13.6 101220 44
2011-06-20 10:26 51°27.521 3°4.927 4 283 13.6 101210 43
2011-06-20 10:27 51°27.648 3°4.66 3.1 284 13.5 101210 44
2011-06-20 10:28 51°27.788 3°4.378 -999 282 13.6 101210 43
2011-06-20 10:29 51°27.935 3°4.139 -999 282 13.6 101220 43
2011-06-20 10:30 51°28.102 3°3.897 -999 282 13.6 101210 43
2011-06-20 10:31 51°28.266 3°3.691 -999 282 13.5 101210 43
2011-06-20 10:32 51°28.345 3°3.531 -999 282 13.5 101210 43
2011-06-20 10:33 51°28.332 3°3.436 0.7 283 13.6 101210 43
2011-06-20 10:34 51°28.312 3°3.386 0.1 282 13.7 101210 42
2011-06-20 10:35 51°28.292 3°3.34 -999 282 13.8 101200 43
2011-06-20 10:36 51°28.272 3°3.3 -999 282 13.9 101210 43
2011-06-20 10:37 51°28.253 3°3.26 -999 282 13.9 101210 43
2011-06-20 10:38 51°28.235 3°3.222 -999 282 14 101210 43
2011-06-20 10:39 51°28.213 3°3.179 -999 282 14 101210 43
2011-06-20 10:40 51°28.167 3°3.093 -999 282 14.1 101200 43
2011-06-20 10:41 51°28.11 3°2.9 3.2 278 14.1 101200 43
2011-06-20 10:42 51°28.03 3°2.572 6.3 282 14 101200 42
2011-06-20 10:43 51°27.947 3°2.224 6.2 280 14 101210 43
2011-06-20 10:44 51°27.861 3°1.851 6.2 285 13.9 101210 43
2011-06-20 10:45 51°27.788 3°1.492 6.2 282 13.9 101190 42
2011-06-20 10:46 51°27.712 3°1.104 7.2 279 13.9 101210 41
2011-06-20 10:47 51°27.636 3°0.741 5.6 280 13.9 101210 43
2011-06-20 10:48 51°27.55 3°0.369 5.7 285 14 101210 42
2011-06-20 10:49 51°27.503 2°59.982 5.1 281 14 101220 43
2011-06-20 10:50 51°27.459 2°59.605 4.9 284 14 101210 43
2011-06-20 10:51 51°27.413 2°59.213 5.9 278 14 101220 42
2011-06-20 10:52 51°27.36 2°58.844 5.1 282 14 101210 42
2011-06-20 10:53 51°27.314 2°58.459 5.6 279 14.1 101220 43
2011-06-20 10:54 51°27.275 2°58.093 6.3 284 14.1 101210 43
2011-06-20 10:55 51°27.221 2°57.718 5.4 283 14 101210 42
2011-06-20 10:56 51°27.171 2°57.334 5.8 279 14 101210 43
2011-06-20 10:57 51°27.127 2°56.959 6.1 284 14 101220 43
2011-06-20 10:58 51°27.083 2°56.568 5 281 14.1 101220 43
2011-06-20 10:59 51°27.027 2°56.189 4.8 280 14 101220 42
2011-06-20 11:00 51°26.975 2°55.794 6 280 14 101220 42
2011-06-20 11:01 51°26.928 2°55.409 5.5 283 14.1 101220 41
2011-06-20 11:02 51°26.876 2°55 5.9 280 14 101220 42
2011-06-20 11:03 51°26.831 2°54.61 5.7 282 14.1 101220 42
2011-06-20 11:04 51°26.777 2°54.221 6.5 284 14.1 101220 42
2011-06-20 11:05 51°26.726 2°53.822 5.1 278 14.1 101230 42
2011-06-20 11:06 51°26.68 2°53.435 4.8 282 14.1 101220 43
2011-06-20 11:07 51°26.64 2°53.052 5.1 279 14 101230 41
2011-06-20 11:08 51°26.595 2°52.668 6 280 14 101230 42
2011-06-20 11:09 51°26.548 2°52.282 6 280 14 101220 42
2011-06-20 11:10 51°26.504 2°51.894 5.2 280 14 101220 43
2011-06-20 11:11 51°26.464 2°51.504 5.5 281 13.9 101230 43
2011-06-20 11:12 51°26.42 2°51.115 6 279 13.9 101220 41
2011-06-20 11:13 51°26.373 2°50.728 2.6 280 14 101220 41
2011-06-20 11:14 51°26.332 2°50.339 5.1 277 14 101220 42
2011-06-20 11:15 51°26.282 2°49.963 6.4 284 14 101230 43
2011-06-20 11:16 51°26.245 2°49.576 4.9 278 14 101230 42
2011-06-20 11:17 51°26.201 2°49.206 4.9 279 14 101230 42
2011-06-20 11:18 51°26.164 2°48.89 0.8 286 13.9 101230 43
2011-06-20 11:19 51°26.135 2°48.72 2 279 14 101230 42
2011-06-20 11:20 51°26.061 2°48.652 -999 281 14 101220 42
2011-06-20 11:21 51°26.012 2°48.633 -999 282 14.1 101230 42
2011-06-20 11:22 51°25.987 2°48.606 -999 282 14.1 101230 42
2011-06-20 11:23 51°25.962 2°48.581 -999 282 14.2 101230 42
2011-06-20 11:24 51°25.939 2°48.554 -999 282 14.3 101230 42
2011-06-20 11:25 51°25.919 2°48.526 -999 281 14.4 101220 42
2011-06-20 11:26 51°25.9 2°48.496 -999 282 14.4 101230 42
2011-06-20 11:27 51°25.883 2°48.463 -999 281 14.4 101230 42
2011-06-20 11:28 51°25.84 2°48.478 3.3 286 14.3 101230 42
2011-06-20 11:29 51°25.716 2°48.564 5.5 281 14.3 101230 42
2011-06-20 11:30 51°25.548 2°48.636 4.4 278 14.3 101220 43
2011-06-20 11:31 51°25.369 2°48.705 6.4 287 14.2 101220 43
2011-06-20 11:32 51°25.194 2°48.738 4.4 285 14.2 101220 43
2011-06-20 11:33 51°25.089 2°48.661 -999 282 14.2 101220 42
2011-06-20 11:34 51°25.037 2°48.572 -999 282 14.2 101220 42
2011-06-20 11:35 51°25.012 2°48.508 -999 79 14.4 101230 42
2011-06-20 11:36 51°24.993 2°48.452 -999 78 14.4 101220 42
2011-06-20 11:37 51°24.975 2°48.401 -999 78 14.5 101220 42
2011-06-20 11:38 51°24.957 2°48.356 -999 78 14.5 101220 42
2011-06-20 11:39 51°24.94 2°48.318 -999 78 14.4 101210 42
2011-06-20 11:40 51°24.921 2°48.281 -999 79 14.3 101210 42
2011-06-20 11:41 51°24.903 2°48.249 -999 78 14.3 101210 42
2011-06-20 11:42 51°24.885 2°48.211 -999 78 14.3 101220 42
2011-06-20 11:43 51°24.861 2°48.122 -999 282 14.4 101210 42
2011-06-20 11:44 51°24.745 2°47.93 -999 282 14.5 101210 42
2011-06-20 11:45 51°24.594 2°47.666 -999 282 14.4 101200 42
2011-06-20 11:46 51°24.459 2°47.337 5.5 283 14.4 101200 42
2011-06-20 11:47 51°24.342 2°46.998 5.7 280 14.4 101200 43
2011-06-20 11:48 51°24.243 2°46.644 6.4 280 14.4 101200 42
2011-06-20 11:49 51°24.148 2°46.286 5.8 286 14.3 101210 43
2011-06-20 11:50 51°24.06 2°45.925 5.2 284 14.3 101200 42
2011-06-20 11:51 51°23.971 2°45.568 4.6 280 14.4 101210 42
2011-06-20 11:52 51°23.873 2°45.212 4.8 285 14.4 101200 41
2011-06-20 11:53 51°23.785 2°44.853 5.5 285 14.4 101200 43
2011-06-20 11:54 51°23.691 2°44.498 4.9 280 14.4 101190 43
2011-06-20 11:55 51°23.598 2°44.142 5.1 278 14.3 101200 43
2011-06-20 11:56 51°23.512 2°43.784 4.7 285 14.3 101200 43
2011-06-20 11:57 51°23.444 2°43.421 4.6 283 14.3 101200 41
2011-06-20 11:58 51°23.368 2°43.059 4.8 279 14.3 101200 43
2011-06-20 11:59 51°23.313 2°42.691 4.4 282 14.3 101190 42
2011-06-20 12:00 51°23.261 2°42.324 4.5 280 14.4 101200 41
2011-06-20 12:01 51°23.202 2°41.96 4.5 280 14.3 101200 42
2011-06-20 12:02 51°23.136 2°41.597 4.3 279 14.4 101200 41
2011-06-20 12:03 51°23.084 2°41.23 3.9 283 14.3 101200 43
2011-06-20 12:04 51°23.029 2°40.866 4.8 281 14.4 101200 42
2011-06-20 12:05 51°22.946 2°40.524 5.7 283 14.3 101210 42
2011-06-20 12:06 51°22.739 2°40.411 6.1 285 14.4 101200 43
2011-06-20 12:07 51°22.513 2°40.424 5.2 285 14.4 101200 43
2011-06-20 12:08 51°22.285 2°40.443 7.3 278 14.5 101200 43
2011-06-20 12:09 51°22.055 2°40.439 6.7 279 14.5 101200 43
2011-06-20 12:10 51°21.824 2°40.405 6 284 14.5 101190 43
2011-06-20 12:11 51°21.594 2°40.363 6.2 284 14.6 101200 43
2011-06-20 12:12 51°21.369 2°40.263 6.3 278 14.6 101190 42
2011-06-20 12:13 51°21.168 2°40.073 4.7 280 14.6 101200 42
2011-06-20 12:14 51°21.045 2°39.757 5.2 280 14.6 101200 42
2011-06-20 12:15 51°20.976 2°39.401 4.4 285 14.6 101200 42
2011-06-20 12:16 51°20.919 2°39.041 4.8 277 14.6 101200 43
2011-06-20 12:17 51°20.871 2°38.677 4.2 279 14.6 101190 43
2011-06-20 12:18 51°20.837 2°38.312 4.8 278 14.5 101190 42
2011-06-20 12:19 51°20.797 2°37.948 4.9 280 14.5 101190 43
2011-06-20 12:20 51°20.758 2°37.583 4.6 278 14.5 101190 43
2011-06-20 12:21 51°20.721 2°37.218 4 280 14.5 101190 43
2011-06-20 12:22 51°20.686 2°36.852 4.6 279 14.5 101190 43
2011-06-20 12:23 51°20.647 2°36.488 4.3 278 14.5 101190 43
2011-06-20 12:24 51°20.605 2°36.124 4.4 284 14.5 101190 42
2011-06-20 12:25 51°20.574 2°35.757 4.8 284 14.5 101200 43
2011-06-20 12:26 51°20.532 2°35.391 4.3 283 14.4 101190 43
2011-06-20 12:27 51°20.486 2°35.027 4.8 277 14.4 101200 42
2011-06-20 12:28 51°20.443 2°34.663 4.1 286 14.4 101190 43
2011-06-20 12:29 51°20.393 2°34.3 4.4 283 14.5 101190 42
2011-06-20 12:30 51°20.353 2°33.933 4.6 285 14.5 101190 42
2011-06-20 12:31 51°20.307 2°33.568 4.8 285 14.5 101200 42
2011-06-20 12:32 51°20.271 2°33.199 4.6 280 14.5 101190 43
2011-06-20 12:33 51°20.229 2°32.833 5.2 285 14.5 101200 44
2011-06-20 12:34 51°20.189 2°32.467 5.1 278 14.5 101200 42
2011-06-20 12:35 51°20.166 2°32.102 4.7 280 14.5 101200 43
2011-06-20 12:36 51°20.138 2°31.738 5 284 14.5 101200 43
2011-06-20 12:37 51°20.115 2°31.373 4.5 280 14.5 101200 42
2011-06-20 12:38 51°20.083 2°31.011 5.1 285 14.5 101200 42
2011-06-20 12:39 51°20.066 2°30.652 4.8 280 14.5 101190 43
2011-06-20 12:40 51°20.049 2°30.332 2.7 280 14.5 101200 44
2011-06-20 12:41 51°20.029 2°30.123 -999 281 14.6 101200 43
2011-06-20 12:42 51°20.024 2°29.982 -999 349 14.6 101200 43
2011-06-20 12:43 51°20.02 2°29.923 0.1 79 14.7 101200 43
2011-06-20 12:44 51°20.016 2°29.923 -999 79 14.8 101200 43
2011-06-20 12:45 51°20.012 2°29.921 -999 79 14.9 101210 43
2011-06-20 12:46 51°20.007 2°29.917 -999 79 14.8 101210 43
2011-06-20 12:47 51°20.002 2°29.912 -999 79 14.8 101200 43
2011-06-20 12:48 51°19.996 2°29.908 -999 79 14.7 101200 43
2011-06-20 12:49 51°19.989 2°29.904 -999 79 14.8 101200 43
2011-06-20 12:50 51°19.966 2°29.872 -999 281 14.8 101200 43
2011-06-20 12:51 51°19.884 2°29.767 0.1 281 14.9 101200 43
2011-06-20 12:52 51°19.735 2°29.567 -999 281 14.8 101190 43
2011-06-20 12:53 51°19.575 2°29.322 -999 281 14.8 101200 43
2011-06-20 12:54 51°19.407 2°29.09 -999 281 14.8 101200 43
2011-06-20 12:55 51°19.239 2°28.852 -999 281 14.8 101190 43
2011-06-20 12:56 51°19.072 2°28.62 -999 281 14.8 101200 43
2011-06-20 12:57 51°18.906 2°28.393 -999 281 14.8 101190 43
2011-06-20 12:58 51°18.746 2°28.159 -999 281 14.8 101180 43
2011-06-20 12:59 51°18.577 2°27.922 -999 281 14.8 101180 43
2011-06-20 13:00 51°18.409 2°27.684 -999 281 14.8 101180 43
2011-06-20 13:01 51°18.246 2°27.453 -999 281 14.9 101180 43
2011-06-20 13:02 51°18.08 2°27.22 5.1 279 14.9 101180 42
2011-06-20 13:03 51°17.909 2°26.986 3.5 280 14.9 101190 43
2011-06-20 13:04 51°17.744 2°26.76 5.1 279 14.9 101180 43
2011-06-20 13:05 51°17.581 2°26.516 4.4 284 14.9 101190 42
2011-06-20 13:06 51°17.417 2°26.29 4.7 280 14.8 101190 42
2011-06-20 13:07 51°17.253 2°26.056 4.4 283 14.9 101190 42
2011-06-20 13:08 51°17.084 2°25.836 4.8 281 14.9 101190 43
2011-06-20 13:09 51°16.879 2°25.715 5.3 285 14.9 101190 43
2011-06-20 13:10 51°16.678 2°25.616 5.1 279 14.9 101190 43
2011-06-20 13:11 51°16.499 2°25.523 4.1 283 14.9 101180 43
2011-06-20 13:12 51°16.376 2°25.451 0.2 286 15 101190 42
2011-06-20 13:13 51°16.287 2°25.463 -999 281 15 101190 42
2011-06-20 13:14 51°16.239 2°25.546 -999 281 15 101190 42
2011-06-20 13:15 51°16.206 2°25.642 -999 281 15 101190 42
2011-06-20 13:16 51°16.189 2°25.713 -999 281 15 101180 42
2011-06-20 13:17 51°16.181 2°25.76 -999 281 15 101190 42
2011-06-20 13:18 51°16.179 2°25.775 -999 281 15.1 101190 42
2011-06-20 13:19 51°16.178 2°25.788 -999 281 15.1 101190 42
2011-06-20 13:20 51°16.176 2°25.808 -999 281 15.1 101190 42
2011-06-20 13:21 51°16.173 2°25.829 -999 281 15.2 101190 42
2011-06-20 13:22 51°16.134 2°25.93 4.8 284 15.2 101190 42
2011-06-20 13:23 51°16.081 2°26.201 6.9 280 15.1 101180 42
2011-06-20 13:24 51°16.114 2°26.554 8.6 279 15 101180 42
2011-06-20 13:25 51°16.172 2°26.923 8 279 15 101180 41
2011-06-20 13:26 51°16.2 2°27.29 7 281 14.9 101180 43
2011-06-20 13:27 51°16.216 2°27.653 7.7 284 14.8 101180 43
2011-06-20 13:28 51°16.24 2°28.001 8.1 281 14.8 101180 41
2011-06-20 13:29 51°16.26 2°28.359 6.9 286 14.8 101180 42
2011-06-20 13:30 51°16.262 2°28.703 7.9 277 14.8 101180 42
2011-06-20 13:31 51°16.267 2°29.068 6.9 285 14.7 101180 42
2011-06-20 13:32 51°16.276 2°29.415 6.9 285 14.7 101170 43
2011-06-20 13:33 51°16.28 2°29.775 8.1 285 14.7 101180 42
2011-06-20 13:34 51°16.279 2°30.131 8.5 283 14.7 101180 43
2011-06-20 13:35 51°16.28 2°30.49 7.1 283 14.7 101180 42
2011-06-20 13:36 51°16.294 2°30.844 7.3 285 14.7 101180 42
2011-06-20 13:37 51°16.293 2°31.2 6.9 277 14.7 101180 43
2011-06-20 13:38 51°16.295 2°31.572 7.5 283 14.7 101180 41
2011-06-20 13:39 51°16.307 2°31.923 7.3 282 14.7 101180 42
2011-06-20 13:40 51°16.321 2°32.293 8 280 14.7 101190 42
2011-06-20 13:41 51°16.323 2°32.654 8 280 14.7 101180 42
2011-06-20 13:42 51°16.336 2°33.034 6.7 280 14.6 101180 43
2011-06-20 13:43 51°16.35 2°33.395 7.5 284 14.7 101190 43
2011-06-20 13:44 51°16.376 2°33.775 9.3 281 14.7 101190 42
2011-06-20 13:45 51°16.397 2°34.161 8 278 14.7 101190 42
2011-06-20 13:46 51°16.417 2°34.527 7.3 284 14.7 101190 43
2011-06-20 13:47 51°16.457 2°34.906 7.5 281 14.7 101190 42
2011-06-20 13:48 51°16.489 2°35.275 7.7 279 14.7 101190 43
2011-06-20 13:49 51°16.525 2°35.639 7.2 278 14.7 101190 42
2011-06-20 13:50 51°16.557 2°36.001 7.4 279 14.7 101190 42
2011-06-20 13:51 51°16.578 2°36.345 6 284 14.7 101190 42
2011-06-20 13:52 51°16.608 2°36.598 3.9 282 14.7 101200 43
2011-06-20 13:53 51°16.625 2°36.701 0.1 281 14.7 101210 43
2011-06-20 13:54 51°16.625 2°36.732 -999 281 14.8 101200 42
2011-06-20 13:55 51°16.628 2°36.75 -999 281 14.9 101200 42
2011-06-20 13:56 51°16.628 2°36.767 -999 281 15 101200 42
2011-06-20 13:57 51°16.63 2°36.786 -999 281 15 101200 42
2011-06-20 13:58 51°16.631 2°36.804 -999 79 15.1 101190 42
2011-06-20 13:59 51°16.633 2°36.823 -999 79 15.1 101200 42
2011-06-20 14:00 51°16.622 2°36.838 -999 276 15.1 101190 42
2011-06-20 14:01 51°16.507 2°36.852 3.8 280 15.2 101190 42
2011-06-20 14:02 51°16.307 2°36.884 5.4 280 15.2 101190 41
2011-06-20 14:03 51°16.099 2°36.951 6 281 15.2 101180 42
2011-06-20 14:04 51°15.889 2°36.983 4.7 279 15.2 101180 43
2011-06-20 14:05 51°15.68 2°37.035 5.9 283 15.2 101180 43
2011-06-20 14:06 51°15.468 2°37.091 6.1 286 15.2 101190 42
2011-06-20 14:07 51°15.258 2°37.136 5.1 279 15.2 101180 42
2011-06-20 14:08 51°15.05 2°37.203 5.4 279 15.2 101180 43
2011-06-20 14:09 51°14.841 2°37.26 5 281 15.1 101180 41
2011-06-20 14:10 51°14.632 2°37.323 5.3 280 15.1 101190 42
2011-06-20 14:11 51°14.423 2°37.388 5.2 280 15.1 101180 43
2011-06-20 14:12 51°14.216 2°37.46 4.9 286 15.1 101180 42
2011-06-20 14:13 51°14.01 2°37.518 4.9 279 15 101180 42
2011-06-20 14:14 51°13.803 2°37.579 4.9 278 15 101180 43
2011-06-20 14:15 51°13.598 2°37.588 4.2 278 15 101180 42
2011-06-20 14:16 51°13.392 2°37.556 4.3 278 15 101180 42
2011-06-20 14:17 51°13.184 2°37.533 4.3 278 15 101180 41
2011-06-20 14:18 51°12.98 2°37.476 4.3 277 15.1 101180 41
2011-06-20 14:19 51°12.775 2°37.416 4.1 279 15 101180 42
2011-06-20 14:20 51°12.576 2°37.371 4.7 285 15.1 101180 43
2011-06-20 14:21 51°12.371 2°37.331 4 278 15.1 101180 41
2011-06-20 14:22 51°12.187 2°37.231 3.4 283 15.1 101180 43
2011-06-20 14:23 51°11.998 2°37.118 3.9 281 15.1 101180 41
2011-06-20 14:24 51°11.813 2°37.014 3.8 285 15.1 101180 43
2011-06-20 14:25 51°11.618 2°36.924 4 279 15.1 101180 41
2011-06-20 14:26 51°11.437 2°36.814 3.8 283 15.2 101170 42
2011-06-20 14:27 51°11.252 2°36.724 3.8 284 15.2 101170 42
2011-06-20 14:28 51°11.065 2°36.617 -999 281 15.1 101180 42
2011-06-20 14:29 51°10.886 2°36.51 -999 281 15.2 101170 42
2011-06-20 14:30 51°10.696 2°36.419 -999 281 15.2 101180 42
2011-06-20 14:31 51°10.51 2°36.347 -999 281 15.2 101180 42
2011-06-20 14:32 51°10.313 2°36.297 -999 281 15.2 101170 42
2011-06-20 14:33 51°10.112 2°36.313 -999 281 15.1 101170 42
2011-06-20 14:34 51°9.986 2°36.582 8.3 281 15.1 101170 43
2011-06-20 14:35 51°9.973 2°36.964 10.3 280 15.1 101160 43
2011-06-20 14:36 51°10.022 2°37.334 8 282 15.1 101160 43
2011-06-20 14:37 51°10.104 2°37.705 7.8 279 15.1 101160 42
2011-06-20 14:38 51°10.18 2°38.066 9.3 281 15 101160 43
2011-06-20 14:39 51°10.242 2°38.438 9.3 284 15 101160 42
2011-06-20 14:40 51°10.321 2°38.799 7.7 284 14.9 101160 42
2011-06-20 14:41 51°10.41 2°39.169 7.8 280 14.9 101160 42
2011-06-20 14:42 51°10.482 2°39.547 9.6 281 14.9 101160 41
2011-06-20 14:43 51°10.575 2°39.901 10.1 279 14.9 101160 42
2011-06-20 14:44 51°10.643 2°40.274 4.3 278 14.9 101160 43
2011-06-20 14:45 51°10.734 2°40.641 9.6 282 14.9 101160 42
2011-06-20 14:46 51°10.817 2°40.996 9.1 281 14.9 101160 41
2011-06-20 14:47 51°10.905 2°41.355 9.8 285 14.9 101160 42
2011-06-20 14:48 51°10.962 2°41.644 6.2 286 14.9 101160 41
2011-06-20 14:49 51°11.01 2°41.831 4.1 281 14.9 101170 43
2011-06-20 14:50 51°11.053 2°41.933 2.9 280 14.8 101170 43
2011-06-20 14:51 51°11.077 2°41.998 0.1 282 14.9 101170 42
2011-06-20 14:52 51°11.084 2°42.019 -999 281 14.9 101170 42
2011-06-20 14:53 51°11.091 2°42.038 -999 281 14.9 101180 42
2011-06-20 14:54 51°11.097 2°42.06 -999 282 14.9 101170 42
2011-06-20 14:55 51°11.105 2°42.085 -999 281 14.8 101170 42
2011-06-20 14:56 51°11.11 2°42.147 3.7 284 14.9 101170 43
2011-06-20 14:57 51°11.115 2°42.382 7.5 282 14.9 101170 41
2011-06-20 14:58 51°11.153 2°42.736 9.1 282 14.9 101160 43
2011-06-20 14:59 51°11.196 2°43.109 4 279 14.9 101160 42
2011-06-20 15:00 51°11.267 2°43.474 8.7 279 14.9 101160 42
2011-06-20 15:01 51°11.325 2°43.845 7.5 284 14.9 101160 42
2011-06-20 15:02 51°11.395 2°44.216 8.3 280 14.9 101160 42
2011-06-20 15:03 51°11.469 2°44.582 4.2 279 14.8 101160 42
2011-06-20 15:04 51°11.535 2°44.953 8.5 284 14.9 101160 42
2011-06-20 15:05 51°11.612 2°45.312 9.2 279 14.9 101160 42
2011-06-20 15:06 51°11.678 2°45.687 7.9 279 14.9 101160 42
2011-06-20 15:07 51°11.755 2°46.052 9.4 280 14.9 101160 43
2011-06-20 15:08 51°11.838 2°46.414 8.6 277 14.9 101170 42
2011-06-20 15:09 51°11.932 2°46.768 9.7 280 14.9 101160 42
2011-06-20 15:10 51°12.039 2°47.116 7.8 285 14.9 101160 42
2011-06-20 15:11 51°12.137 2°47.473 7.6 283 14.9 101160 42
2011-06-20 15:12 51°12.229 2°47.825 8.3 284 14.9 101160 43
2011-06-20 15:13 51°12.348 2°48.17 9.5 284 14.9 101160 42
2011-06-20 15:14 51°12.452 2°48.522 7.4 280 14.9 101160 42
2011-06-20 15:15 51°12.561 2°48.869 8.2 285 14.9 101160 42
2011-06-20 15:16 51°12.658 2°49.217 7.8 278 14.9 101160 42
2011-06-20 15:17 51°12.766 2°49.564 8.3 279 14.9 101160 42
2011-06-20 15:18 51°12.869 2°49.92 7.1 279 15 101160 42
2011-06-20 15:19 51°12.993 2°50.251 9.3 281 15 101150 43
2011-06-20 15:20 51°13.117 2°50.585 8.4 285 15 101150 42
2011-06-20 15:21 51°13.23 2°50.928 8.6 283 15 101150 42
2011-06-20 15:22 51°13.347 2°51.261 7.8 279 15 101150 42
2011-06-20 15:23 51°13.471 2°51.601 8.6 282 15 101150 42
2011-06-20 15:24 51°13.594 2°51.933 7.2 280 15 101150 43
2011-06-20 15:25 51°13.715 2°52.259 8.1 286 15 101150 42
2011-06-20 15:26 51°13.847 2°52.591 8.8 278 15 101160 42
2011-06-20 15:27 51°13.992 2°52.911 8.9 280 15 101160 42
2011-06-20 15:28 51°14.126 2°53.223 7.1 279 15 101150 41
2011-06-20 15:29 51°14.268 2°53.531 7.8 284 15 101150 42
2011-06-20 15:30 51°14.389 2°53.828 7.5 282 15.1 101150 41
2011-06-20 15:31 51°14.49 2°54.113 7 283 15.1 101150 42
2011-06-20 15:32 51°14.575 2°54.399 6.4 285 15.1 101150 41
2011-06-20 15:33 51°14.631 2°54.639 5 286 15.1 101160 41
2011-06-20 15:34 51°14.618 2°54.877 4.7 279 15.1 101160 42
2011-06-20 15:35 51°14.504 2°55.076 4 282 15.1 101160 43
2011-06-20 15:36 51°14.354 2°55.225 4.3 279 15.2 101170 42
2011-06-20 15:37 51°14.224 2°55.344 2.5 285 15.2 101170 42
2011-06-20 15:38 51°14.115 2°55.428 -999 282 15.2 101170 41
2011-06-20 15:39 51°14.028 2°55.488 -999 281 15.2 101170 42
2011-06-20 15:40 51°13.953 2°55.54 -999 282 15.2 101170 42
2011-06-20 15:41 51°13.879 2°55.592 -999 282 15.2 101170 42
2011-06-20 15:42 51°13.809 2°55.648 -999 282 15.2 101170 42
2011-06-20 15:43 51°13.757 2°55.72 -999 282 15.2 101180 42
2011-06-20 15:44 51°13.72 2°55.788 -999 282 15.2 101180 42
2011-06-20 15:45 51°13.692 2°55.842 -999 282 15.1 101180 42
2011-06-20 15:46 51°13.687 2°55.845 -999 78 15.1 101180 42
2011-06-20 15:47 51°13.688 2°55.84 -999 78 15.1 101170 42
2011-06-20 15:48 51°13.67 2°55.871 -999 282 15.2 101170 42
2011-06-20 15:49 51°13.639 2°55.955 -999 282 15.2 101180 41
2011-06-20 15:50 51°13.635 2°56.012 -999 282 15.1 101180 42